Location: Unspecified
(48.5670°N, 0.0000°E)
Time: 20:22:41
(UTC+00:00)

A-11 Canister half - Visible Passes

Search period start: 22 July 2019 00:00
Search period end: 01 August 2019 00:00
Orbit: 1526 x 1683 km, 47.3° (Epoch: 21 July)

Date Brightness Start Highest point End Pass type
(mag) Time Alt. Az. Time Alt. Az. Time Alt. Az.
22 Jul 8.9 00:15:53 10° W 00:25:45 80° SSW 00:35:16 10° ESE visible
22 Jul 9.2 02:21:05 10° WNW 02:30:10 47° SW 02:38:58 10° SE visible
22 Jul 9.0 21:49:02 10° WSW 21:59:03 78° SSE 22:08:44 10° E visible
22 Jul 8.9 23:54:12 10° W 00:04:07 81° S 00:13:40 10° ESE visible
23 Jul 9.1 01:59:25 10° WNW 02:08:35 49° SW 02:17:29 10° SE visible
23 Jul 9.0 21:27:23 10° WSW 21:37:25 77° SSE 21:47:08 10° E visible
23 Jul 8.9 23:32:32 10° W 23:42:29 81° S 23:52:04 10° ESE visible
24 Jul 9.1 01:37:44 10° WNW 01:47:00 50° SSW 01:55:58 10° SE visible
24 Jul 10.0 03:44:25 10° W 03:50:11 18° SW 03:55:52 10° SSW visible
24 Jul 9.1 21:05:45 10° WSW 21:15:46 76° SSE 21:25:30 10° E visible
24 Jul 9.0 23:10:52 10° W 23:20:50 82° S 23:30:27 10° ESE visible
25 Jul 9.1 01:16:05 10° WNW 01:25:25 52° SSW 01:34:27 10° SE visible
25 Jul 10.0 03:22:34 10° W 03:28:40 19° SW 03:34:40 10° SSW visible
25 Jul 9.1 20:44:05 10° WSW 20:54:08 74° SSE 21:03:53 10° E visible
25 Jul 9.0 22:49:11 10° W 22:59:11 83° S 23:08:50 10° ESE visible
26 Jul 9.1 00:54:24 10° WNW 01:03:50 54° SSW 01:12:56 10° SE visible
26 Jul 9.9 03:00:44 10° W 03:07:08 20° SW 03:13:26 10° S visible
26 Jul 9.1 20:22:27 10° WSW 20:32:29 73° SSE 20:42:16 10° E visible
26 Jul 9.0 22:27:31 10° W 22:37:33 83° S 22:47:14 10° E visible
27 Jul 9.0 00:32:44 10° WNW 00:42:14 56° SSW 00:51:24 10° SE visible
27 Jul 9.9 02:38:55 10° W 02:45:37 22° SW 02:52:11 10° S visible
27 Jul 9.0 22:05:51 10° W 22:15:54 83° S 22:25:37 10° E visible
28 Jul 9.0 00:11:04 10° WNW 00:20:38 57° SSW 00:29:09 13° SE visible
28 Jul 9.9 02:17:07 10° W 02:24:05 23° SW 02:27:03 20° SSW visible
28 Jul 9.0 21:44:10 10° W 21:54:15 84° S 22:03:59 10° E visible
28 Jul 9.0 23:49:23 10° WNW 23:59:02 59° SSW 00:05:36 22° SE visible
29 Jul 9.8 01:55:20 10° W 02:02:33 24° SW 02:03:43 24° SW visible
29 Jul 9.1 21:22:29 10° W 21:32:35 84° S 21:42:22 10° E visible
29 Jul 9.0 23:27:43 10° WNW 23:37:25 61° SSW 23:43:21 26° SE visible
30 Jul 9.8 01:33:35 10° W 01:41:01 26° SW 01:41:31 25° SW visible
30 Jul 9.1 21:00:49 10° W 21:10:57 84° S 21:20:45 10° E visible
30 Jul 9.0 23:06:03 10° WNW 23:15:49 63° SSW 23:21:34 27° SE visible
31 Jul 9.8 01:11:49 10° W 01:19:28 27° SW 01:19:46 27° SW visible
31 Jul 9.1 20:39:08 10° W 20:49:17 84° S 20:59:07 10° E visible
31 Jul 9.0 22:44:23 10° WNW 22:54:12 64° SSW 23:00:03 27° SE visible
